Showing default

BUGSAT 1, 40014

Orbit data source: Space-Track

BUGSAT 1, 40014 is a payload satellite owned by Satellogic SA (AR) in SSO that was launched on Thu, 19 Jun 2014 UTC via a DNEPR launch vehicle from the Orenburg, Russia (OREN). Payload-class satellites include a variety of spacecraft equipped with specific instruments for various scientific and technological missions. These include communications satellites like Starlink; space stations such as the ISS; scientific satellites like the Hubble; Earth observation satellites from companies like Planet Labs, Umbra, and HawkEye 360; GPS; miniature CubeSats for education and research; and military/defense satellites.

Loading next visibility...
Identifier
40014, 2014-033E
Orbit
SSO
Country
Flag of UnknownUnknown / ARGN
Related business
Manufacturer
Satellogic SA
Mission
Operational Commercial Imaging
Bus & Motor
BUGSAT, Unknown motor
Mass
22 kg wet, 22 kg dry
Launch date (UTC)
2014-06-19 (11 years ago)
Launch vehicle
DNEPR
Launch site
Orenburg, Russia (OREN)
Object type
Payload
Rocket body
Debris
Shape & HBR
Box, 1.0 m
Radar Cross Section
0.263 m², Medium (>0.1 m² and < 1m²)

Expand to show TLE details & history
Last TLE update: 9 hours ago

TLE from 9 hours ago
0 BUGSAT 1
1 40014U 14033E   25299.23220559  .00007233  00000-0  41606-3 0  9990
2 40014  98.0603  13.4699 0028867 257.7848 102.0148 15.12448053620435
Epoch: 2025-10-26T05:34Z
TLE epoch observation values (Epoch: 2025-10-26T05:34:22.562Z)
Latitude
-0.00002°
Longitude
-104.97546°
Altitude
536.004 km
Speed
7.592 km/s
True Right ascension
00h 53m 52s
True Declination
0° 00' 00"
Sunlit
Object was in full shadow at epoch
Visualization orbit readout
Latitude
Unknown
Longitude
Unknown
Altitude
Unknown
Speed
Unknown
Apparent Right ascension
Unknown
Apparent Declination
Unknown
Sunlit
N/A
Visualization observer readout
Local Sidereal Time
09:43:12
Azimuth
Unknown
Elevation
Unknown
Doppler factor
Unknown
Orbital elements
Apogee altitude
545.671 km
Perigee altitude
505.812 km
Semi-major axis
6,903.879 km
Eccentricity
0.00289
Inclination
98.0603°
RAAN
13.4699°
Arg. of periapsis
257.7848°
True anomaly
102.3381°
Mean anomaly
102.0148°
Eccentric anomaly
102.17647°
Mean motion
3.78358 °/min
Orbital period
95.15 mins
BSTAR
0.00041606
Loading maneuver chart data...
Computing Atmospheric mass density...
Loading historical data...
Loading historical data...
Loading historical data...
Loading historical data...
Loading historical data...
Loading historical data...
Loading historical data...

Documentation

Showing up to 5 results
|